owner,sensor,date,latitude,longitude,vertical_datum,direction_of_sea_water_velocity,sea_water_speed,upward_sea_water_velocity,qcFlag 
TABS,ioos:station:wmo:42049:1,2003-10-01T00:00:00Z,28.3507,-96.0058,2.0,235.3843995,29.02847223,-99999.0,'11111222,11111222,99999999' 
TABS,ioos:station:wmo:42049:1,2003-10-01T00:30:00Z,28.3507,-96.0058,2.0,247.5446864,28.32780966,-99999.0,'11111222,11111222,99999999' 
TABS,ioos:station:wmo:42049:1,2003-10-01T01:00:00Z,28.3507,-96.0058,2.0,235.6407999,27.80069424,-99999.0,'11111222,11111222,99999999' 
TABS,ioos:station:wmo:42049:1,2003-10-01T01:30:00Z,28.3507,-96.0058,2.0,245.9620509,27.88853707,-99999.0,'11111222,11111222,99999999' 
TABS,ioos:station:wmo:42049:1,2003-10-01T02:00:00Z,28.3507,-96.0058,2.0,246.1532156,28.56885367,-99999.0,'11111222,11111222,99999999' 
TABS,ioos:station:wmo:42049:1,2003-10-01T02:30:00Z,28.3507,-96.0058,2.0,234.9075839,30.49267781,-99999.0,'11111222,11111222,99999999' 
TABS,ioos:station:wmo:42049:1,2003-10-01T03:00:00Z,28.3507,-96.0058,2.0,231.931913,28.41420947,-99999.0,'11111222,11111222,99999999' 
TABS,ioos:station:wmo:42049:1,2003-10-01T03:30:00Z,28.3507,-96.0058,2.0,250.0699138,29.33694599,-99999.0,'11111222,11111222,99999999' 
TABS,ioos:station:wmo:42049:1,2003-10-01T04:00:00Z,28.3507,-96.0058,2.0,235.104212,32.56533433,-99999.0,'11111222,11111222,99999999' 
TABS,ioos:station:wmo:42049:1,2003-10-01T04:30:00Z,28.3507,-96.0058,2.0,231.9922906,32.64243251,-99999.0,'11111222,11111222,99999999' 
TABS,ioos:station:wmo:42049:1,2003-10-01T05:00:00Z,28.3507,-96.0058,2.0,234.9385834,29.90690221,-99999.0,'11111222,11111222,99999999' 
TABS,ioos:station:wmo:42049:1,2003-10-01T05:30:00Z,28.3507,-96.0058,2.0,228.4448505,30.82900258,-99999.0,'11111222,11111222,99999999' 
TABS,ioos:station:wmo:42049:1,2003-10-01T06:00:00Z,28.3507,-96.0058,2.0,235.8008332,47.16524356,-99999.0,'11111222,11111222,99999999' 
TABS,ioos:station:wmo:42049:1,2003-10-01T06:30:00Z,28.3507,-96.0058,2.0,226.5803719,53.83131059,-99999.0,'11111222,11111222,99999999' 
TABS,ioos:station:wmo:42049:1,2003-10-01T07:00:00Z,28.3507,-96.0058,2.0,232.0413681,48.8548145,-99999.0,'11111222,11111222,99999999' 
TABS,ioos:station:wmo:42049:1,2003-10-01T07:30:00Z,28.3507,-96.0058,2.0,235.2601425,53.9092608,-99999.0,'11111222,11111222,99999999' 
TABS,ioos:station:wmo:42049:1,2003-10-01T08:00:00Z,28.3507,-96.0058,2.0,241.1680717,53.14819376,-99999.0,'11111222,11111222,99999999' 
TABS,ioos:station:wmo:42049:1,2003-10-01T08:30:00Z,28.3507,-96.0058,2.0,238.8389764,49.89952304,-99999.0,'11111222,11111222,99999999' 
TABS,ioos:station:wmo:42049:1,2003-10-01T09:00:00Z,28.3507,-96.0058,2.0,232.4310749,42.31514622,-99999.0,'11111222,11111222,99999999' 
TABS,ioos:station:wmo:42049:1,2003-10-01T09:30:00Z,28.3507,-96.0058,2.0,229.3232868,42.20711078,-99999.0,'11111222,11111222,99999999' 
TABS,ioos:station:wmo:42049:1,2003-10-01T10:00:00Z,28.3507,-96.0058,2.0,231.2377543,39.43549924,-99999.0,'11111222,11111222,99999999' 
TABS,ioos:station:wmo:42049:1,2003-10-01T10:30:00Z,28.3507,-96.0058,2.0,227.8798634,39.82506372,-99999.0,'11111222,11111222,99999999' 
TABS,ioos:station:wmo:42049:1,2003-10-01T11:00:00Z,28.3507,-96.0058,2.0,232.7774545,39.03073789,-99999.0,'11111222,11111222,99999999' 
TABS,ioos:station:wmo:42049:1,2003-10-01T11:30:00Z,28.3507,-96.0058,2.0,230.8622239,36.344459,-99999.0,'11111222,11111222,99999999' 
TABS,ioos:station:wmo:42049:1,2003-10-01T12:00:00Z,28.3507,-96.0058,2.0,239.2873906,34.38236757,-99999.0,'11111222,11111222,99999999' 
TABS,ioos:station:wmo:42049:1,2003-10-01T12:30:00Z,28.3507,-96.0058,2.0,235.0265212,34.80507003,-99999.0,'11111222,11111222,99999999' 
TABS,ioos:station:wmo:42049:1,2003-10-01T13:00:00Z,28.3507,-96.0058,2.0,242.5965895,33.32992199,-99999.0,'11111222,11111222,99999999' 
TABS,ioos:station:wmo:42049:1,2003-10-01T13:30:00Z,28.3507,-96.0058,2.0,245.9644407,31.20567416,-99999.0,'11111222,11111222,99999999' 
TABS,ioos:station:wmo:42049:1,2003-10-01T14:00:00Z,28.3507,-96.0058,2.0,242.0671427,36.35540262,-99999.0,'11111222,11111222,99999999' 
TABS,ioos:station:wmo:42049:1,2003-10-01T14:30:00Z,28.3507,-96.0058,2.0,251.7698742,32.66970003,-99999.0,'11111222,11111222,99999999' 
TABS,ioos:station:wmo:42049:1,2003-10-01T15:00:00Z,28.3507,-96.0058,2.0,243.4805675,33.4381713,-99999.0,'11111222,11111222,99999999' 
TABS,ioos:station:wmo:42049:1,2003-10-01T15:30:00Z,28.3507,-96.0058,2.0,230.3231893,26.14135612,-99999.0,'11111222,11111222,99999999' 
TABS,ioos:station:wmo:42049:1,2003-10-01T16:00:00Z,28.3507,-96.0058,2.0,244.6995656,36.05867579,-99999.0,'11111222,11111222,99999999' 
TABS,ioos:station:wmo:42049:1,2003-10-01T16:30:00Z,28.3507,-96.0058,2.0,235.5017105,44.6522575,-99999.0,'11111222,11111222,99999999' 
TABS,ioos:station:wmo:42049:1,2003-10-01T17:00:00Z,28.3507,-96.0058,2.0,230.7240588,52.60236116,-99999.0,'11111222,11111222,99999999' 
TABS,ioos:station:wmo:42049:1,2003-10-01T17:30:00Z,28.3507,-96.0058,2.0,235.3923513,60.63927523,-99999.0,'11111222,11111222,99999999' 
TABS,ioos:station:wmo:42049:1,2003-10-01T18:00:00Z,28.3507,-96.0058,2.0,239.092881,63.79922021,-99999.0,'11111222,11111222,99999999' 
TABS,ioos:station:wmo:42049:1,2003-10-01T18:30:00Z,28.3507,-96.0058,2.0,232.3602249,66.56400379,-99999.0,'11111222,11111222,99999999' 
TABS,ioos:station:wmo:42049:1,2003-10-01T19:00:00Z,28.3507,-96.0058,2.0,229.8847622,60.9477235,-99999.0,'11111222,11111222,99999999' 
TABS,ioos:station:wmo:42049:1,2003-10-01T19:30:00Z,28.3507,-96.0058,2.0,219.8826703,62.55247477,-99999.0,'11111222,11111222,99999999' 
TABS,ioos:station:wmo:42049:1,2003-10-01T20:00:00Z,28.3507,-96.0058,2.0,226.2479626,60.37296249,-99999.0,'11111222,11111222,99999999' 
TABS,ioos:station:wmo:42049:1,2003-10-01T20:30:00Z,28.3507,-96.0058,2.0,231.9079275,57.49507283,-99999.0,'11111222,11111222,99999999' 
TABS,ioos:station:wmo:42049:1,2003-10-01T21:00:00Z,28.3507,-96.0058,2.0,222.1137127,46.34599012,-99999.0,'11111222,11111222,99999999' 
TABS,ioos:station:wmo:42049:1,2003-10-01T21:30:00Z,28.3507,-96.0058,2.0,242.2508993,65.37869072,-99999.0,'11111222,11111222,99999999' 
TABS,ioos:station:wmo:42049:1,2003-10-01T22:00:00Z,28.3507,-96.0058,2.0,228.092536,63.82450078,-99999.0,'11111222,11111222,99999999' 
TABS,ioos:station:wmo:42049:1,2003-10-01T22:30:00Z,28.3507,-96.0058,2.0,238.9236177,60.38648276,-99999.0,'11111222,11111222,99999999' 
TABS,ioos:station:wmo:42049:1,2003-10-01T23:00:00Z,28.3507,-96.0058,2.0,227.7713523,67.11931242,-99999.0,'11111222,11111222,99999999' 
TABS,ioos:station:wmo:42049:1,2003-10-01T23:30:00Z,28.3507,-96.0058,2.0,223.1359551,68.05260098,-99999.0,'11111222,11111222,99999999' 
TABS,ioos:station:wmo:42049:1,2003-10-02T00:00:00Z,28.3507,-96.0058,2.0,226.7584657,69.11689374,-99999.0,'11111222,11111222,99999999' 
TABS,ioos:station:wmo:42049:1,2003-10-02T00:30:00Z,28.3507,-96.0058,2.0,230.6751945,59.77484421,-99999.0,'11111222,11111222,99999999' 
TABS,ioos:station:wmo:42049:1,2003-10-02T01:00:00Z,28.3507,-96.0058,2.0,222.5581686,60.08791226,-99999.0,'11111222,11111222,99999999' 
TABS,ioos:station:wmo:42049:1,2003-10-02T01:30:00Z,28.3507,-96.0058,2.0,242.4376725,50.63671593,-99999.0,'11111222,11111222,99999999' 
TABS,ioos:station:wmo:42049:1,2003-10-02T02:00:00Z,28.3507,-96.0058,2.0,236.8199758,47.32612492,-99999.0,'11111222,11111222,99999999' 
TABS,ioos:station:wmo:42049:1,2003-10-02T02:30:00Z,28.3507,-96.0058,2.0,235.1328079,45.37572589,-99999.0,'11111222,11111222,99999999' 
TABS,ioos:station:wmo:42049:1,2003-10-02T03:00:00Z,28.3507,-96.0058,2.0,221.7441003,40.34190873,-99999.0,'11111222,11111222,99999999' 
TABS,ioos:station:wmo:42049:1,2003-10-02T03:30:00Z,28.3507,-96.0058,2.0,244.1138806,41.87107952,-99999.0,'11111222,11111222,99999999' 
TABS,ioos:station:wmo:42049:1,2003-10-02T04:00:00Z,28.3507,-96.0058,2.0,238.4196156,38.26697793,-99999.0,'11111222,11111222,99999999' 
TABS,ioos:station:wmo:42049:1,2003-10-02T04:30:00Z,28.3507,-96.0058,2.0,242.3886199,42.87256699,-99999.0,'11111222,11111222,99999999' 
TABS,ioos:station:wmo:42049:1,2003-10-02T05:00:00Z,28.3507,-96.0058,2.0,250.7027685,35.73778113,-99999.0,'11111222,11111222,99999999' 
TABS,ioos:station:wmo:42049:1,2003-10-02T05:30:00Z,28.3507,-96.0058,2.0,233.4728932,32.72858689,-99999.0,'11111222,11111222,99999999' 
TABS,ioos:station:wmo:42049:1,2003-10-02T06:00:00Z,28.3507,-96.0058,2.0,243.6386698,45.20016482,-99999.0,'11111222,11111222,99999999' 
TABS,ioos:station:wmo:42049:1,2003-10-02T06:30:00Z,28.3507,-96.0058,2.0,244.4063731,39.81668118,-99999.0,'11111222,11111222,99999999' 
TABS,ioos:station:wmo:42049:1,2003-10-02T07:00:00Z,28.3507,-96.0058,2.0,235.783957,55.02302791,-99999.0,'11111222,11111222,99999999' 
TABS,ioos:station:wmo:42049:1,2003-10-02T07:30:00Z,28.3507,-96.0058,2.0,234.2609567,52.6802667,-99999.0,'11111222,11111222,99999999' 
TABS,ioos:station:wmo:42049:1,2003-10-02T08:00:00Z,28.3507,-96.0058,2.0,219.0877052,52.24314405,-99999.0,'11111222,11111222,99999999' 
TABS,ioos:station:wmo:42049:1,2003-10-02T08:30:00Z,28.3507,-96.0058,2.0,227.7176757,50.99734307,-99999.0,'11111222,11111222,99999999' 
TABS,ioos:station:wmo:42049:1,2003-10-02T09:00:00Z,28.3507,-96.0058,2.0,230.4353816,49.86312465,-99999.0,'11111222,11111222,99999999' 
TABS,ioos:station:wmo:42049:1,2003-10-02T09:30:00Z,28.3507,-96.0058,2.0,235.4319794,52.87467825,-99999.0,'11111222,11111222,99999999' 
TABS,ioos:station:wmo:42049:1,2003-10-02T10:00:00Z,28.3507,-96.0058,2.0,224.9996843,50.48742418,-99999.0,'11111222,11111222,99999999' 
TABS,ioos:station:wmo:42049:1,2003-10-02T10:30:00Z,28.3507,-96.0058,2.0,228.2053508,56.52263706,-99999.0,'11111222,11111222,99999999' 
TABS,ioos:station:wmo:42049:1,2003-10-02T11:00:00Z,28.3507,-96.0058,2.0,235.3421538,54.86489679,-99999.0,'11111222,11111222,99999999' 
TABS,ioos:station:wmo:42049:1,2003-10-02T11:30:00Z,28.3507,-96.0058,2.0,231.2364028,57.08316477,-99999.0,'11111222,11111222,99999999' 
TABS,ioos:station:wmo:42049:1,2003-10-02T12:00:00Z,28.3507,-96.0058,2.0,214.1544834,55.05580533,-99999.0,'11111222,11111222,99999999' 
TABS,ioos:station:wmo:42049:1,2003-10-02T12:30:00Z,28.3507,-96.0058,2.0,232.2118288,60.5477704,-99999.0,'11111222,11111222,99999999' 
TABS,ioos:station:wmo:42049:1,2003-10-02T13:00:00Z,28.3507,-96.0058,2.0,218.8453939,54.87662526,-99999.0,'11111222,11111222,99999999' 
TABS,ioos:station:wmo:42049:1,2003-10-02T13:30:00Z,28.3507,-96.0058,2.0,227.028216,53.13701911,-99999.0,'11111222,11111222,99999999' 
TABS,ioos:station:wmo:42049:1,2003-10-02T14:00:00Z,28.3507,-96.0058,2.0,226.8040447,60.40980136,-99999.0,'11111222,11111222,99999999' 
TABS,ioos:station:wmo:42049:1,2003-10-02T14:30:00Z,28.3507,-96.0058,2.0,224.1953119,66.99082698,-99999.0,'11111222,11111222,99999999' 
TABS,ioos:station:wmo:42049:1,2003-10-02T15:00:00Z,28.3507,-96.0058,2.0,228.5264711,61.72711641,-99999.0,'11111222,11111222,99999999' 
TABS,ioos:station:wmo:42049:1,2003-10-02T15:30:00Z,28.3507,-96.0058,2.0,228.5061514,67.28697051,-99999.0,'11111222,11111222,99999999' 
TABS,ioos:station:wmo:42049:1,2003-10-02T16:00:00Z,28.3507,-96.0058,2.0,223.7780369,68.32204476,-99999.0,'11111222,11111222,99999999' 
TABS,ioos:station:wmo:42049:1,2003-10-02T16:30:00Z,28.3507,-96.0058,2.0,222.5047932,72.44812351,-99999.0,'11111222,11111222,99999999' 
TABS,ioos:station:wmo:42049:1,2003-10-02T17:00:00Z,28.3507,-96.0058,2.0,226.4447523,64.77036745,-99999.0,'11111222,11111222,99999999' 
TABS,ioos:station:wmo:42049:1,2003-10-02T17:30:00Z,28.3507,-96.0058,2.0,218.3791855,68.62981932,-99999.0,'11111222,11111222,99999999' 
TABS,ioos:station:wmo:42049:1,2003-10-02T18:00:00Z,28.3507,-96.0058,2.0,216.8987216,74.76600966,-99999.0,'11111222,11111222,99999999' 
TABS,ioos:station:wmo:42049:1,2003-10-02T18:30:00Z,28.3507,-96.0058,2.0,220.8478714,66.70673504,-99999.0,'11111222,11111222,99999999' 
TABS,ioos:station:wmo:42049:1,2003-10-02T19:00:00Z,28.3507,-96.0058,2.0,227.5414972,57.2400428,-99999.0,'11111222,11111222,99999999' 
TABS,ioos:station:wmo:42049:1,2003-10-02T19:30:00Z,28.3507,-96.0058,2.0,223.0564149,65.26813694,-99999.0,'11111222,11111222,99999999' 
TABS,ioos:station:wmo:42049:1,2003-10-02T20:00:00Z,28.3507,-96.0058,2.0,218.1289951,67.97442019,-99999.0,'11111222,11111222,99999999' 
TABS,ioos:station:wmo:42049:1,2003-10-02T20:30:00Z,28.3507,-96.0058,2.0,217.4258065,73.55146566,-99999.0,'11111222,11111222,99999999' 
TABS,ioos:station:wmo:42049:1,2003-10-02T21:00:00Z,28.3507,-96.0058,2.0,213.916485,75.00160065,-99999.0,'11111222,11111222,99999999' 
TABS,ioos:station:wmo:42049:1,2003-10-02T21:30:00Z,28.3507,-96.0058,2.0,229.1677373,54.96736941,-99999.0,'11111222,11111222,99999999' 
TABS,ioos:station:wmo:42049:1,2003-10-02T22:00:00Z,28.3507,-96.0058,2.0,214.5830345,54.43934607,-99999.0,'11111222,11111222,99999999' 
TABS,ioos:station:wmo:42049:1,2003-10-02T22:30:00Z,28.3507,-96.0058,2.0,218.0502766,55.51978746,-99999.0,'11111222,11111222,99999999' 
TABS,ioos:station:wmo:42049:1,2003-10-02T23:00:00Z,28.3507,-96.0058,2.0,234.8438682,49.00993063,-99999.0,'11111222,11111222,99999999' 
TABS,ioos:station:wmo:42049:1,2003-10-02T23:30:00Z,28.3507,-96.0058,2.0,210.7854642,45.81606814,-99999.0,'11111222,11111222,99999999' 
TABS,ioos:station:wmo:42049:1,2003-10-03T00:00:00Z,28.3507,-96.0058,2.0,230.3896124,48.40334389,-99999.0,'11111222,11111222,99999999' 
TABS,ioos:station:wmo:42049:1,2003-10-03T00:30:00Z,28.3507,-96.0058,2.0,223.6008327,47.2134483,-99999.0,'11111222,11111222,99999999' 
TABS,ioos:station:wmo:42049:1,2003-10-03T01:00:00Z,28.3507,-96.0058,2.0,223.0849685,53.33148601,-99999.0,'11111222,11111222,99999999' 
TABS,ioos:station:wmo:42049:1,2003-10-03T01:30:00Z,28.3507,-96.0058,2.0,241.0937712,47.52032092,-99999.0,'11111222,11111222,99999999' 
TABS,ioos:station:wmo:42049:1,2003-10-03T02:00:00Z,28.3507,-96.0058,2.0,220.4922951,45.16825655,-99999.0,'11111222,11111222,99999999' 
TABS,ioos:station:wmo:42049:1,2003-10-03T02:30:00Z,28.3507,-96.0058,2.0,230.8280646,56.12328037,-99999.0,'11111222,11111222,99999999' 
TABS,ioos:station:wmo:42049:1,2003-10-03T03:00:00Z,28.3507,-96.0058,2.0,222.979416,52.35137152,-99999.0,'11111222,11111222,99999999' 
TABS,ioos:station:wmo:42049:1,2003-10-03T03:30:00Z,28.3507,-96.0058,2.0,229.5358104,47.02848924,-99999.0,'11111222,11111222,99999999' 
TABS,ioos:station:wmo:42049:1,2003-10-03T04:00:00Z,28.3507,-96.0058,2.0,218.3853942,48.31290614,-99999.0,'11111222,11111222,99999999' 
TABS,ioos:station:wmo:42049:1,2003-10-03T04:30:00Z,28.3507,-96.0058,2.0,234.4744889,42.61173547,-99999.0,'11111222,11111222,99999999' 
TABS,ioos:station:wmo:42049:1,2003-10-03T05:00:00Z,28.3507,-96.0058,2.0,229.8149056,40.43365183,-99999.0,'11111222,11111222,99999999' 
TABS,ioos:station:wmo:42049:1,2003-10-03T05:30:00Z,28.3507,-96.0058,2.0,227.6887188,37.22773831,-99999.0,'11111222,11111222,99999999' 
TABS,ioos:station:wmo:42049:1,2003-10-03T06:00:00Z,28.3507,-96.0058,2.0,223.3511172,38.58864729,-99999.0,'11111222,11111222,99999999' 
TABS,ioos:station:wmo:42049:1,2003-10-03T06:30:00Z,28.3507,-96.0058,2.0,230.6578301,38.44177155,-99999.0,'11111222,11111222,99999999' 
TABS,ioos:station:wmo:42049:1,2003-10-03T07:00:00Z,28.3507,-96.0058,2.0,214.0038245,38.96272706,-99999.0,'11111222,11111222,99999999' 
TABS,ioos:station:wmo:42049:1,2003-10-03T07:30:00Z,28.3507,-96.0058,2.0,230.5949515,27.26868167,-99999.0,'11111222,11111222,99999999' 
TABS,ioos:station:wmo:42049:1,2003-10-03T08:00:00Z,28.3507,-96.0058,2.0,224.5204345,33.8150292,-99999.0,'11111222,11111222,99999999' 
TABS,ioos:station:wmo:42049:1,2003-10-03T08:30:00Z,28.3507,-96.0058,2.0,211.9593512,29.2071909,-99999.0,'11111222,11111222,99999999' 
TABS,ioos:station:wmo:42049:1,2003-10-03T09:00:00Z,28.3507,-96.0058,2.0,235.0983606,27.42218445,-99999.0,'11111222,11111222,99999999' 
TABS,ioos:station:wmo:42049:1,2003-10-03T09:30:00Z,28.3507,-96.0058,2.0,216.7869233,33.26403463,-99999.0,'11111222,11111222,99999999' 
TABS,ioos:station:wmo:42049:1,2003-10-03T10:00:00Z,28.3507,-96.0058,2.0,232.8753711,26.57626196,-99999.0,'11111222,11111222,99999999' 
TABS,ioos:station:wmo:42049:1,2003-10-03T10:30:00Z,28.3507,-96.0058,2.0,216.8044136,28.1260182,-99999.0,'11111222,11111222,99999999' 
TABS,ioos:station:wmo:42049:1,2003-10-03T11:00:00Z,28.3507,-96.0058,2.0,224.9850643,27.71151566,-99999.0,'11111222,11111222,99999999' 
TABS,ioos:station:wmo:42049:1,2003-10-03T11:30:00Z,28.3507,-96.0058,2.0,218.4981024,27.16497193,-99999.0,'11111222,11111222,99999999' 
TABS,ioos:station:wmo:42049:1,2003-10-03T12:00:00Z,28.3507,-96.0058,2.0,195.2825032,29.09903435,-99999.0,'11111222,11111222,99999999' 
TABS,ioos:station:wmo:42049:1,2003-10-03T12:30:00Z,28.3507,-96.0058,2.0,204.1055094,27.20222417,-99999.0,'11111222,11111222,99999999' 
TABS,ioos:station:wmo:42049:1,2003-10-03T13:00:00Z,28.3507,-96.0058,2.0,215.0082485,19.88849416,-99999.0,'11111222,11111222,99999999' 
TABS,ioos:station:wmo:42049:1,2003-10-03T13:30:00Z,28.3507,-96.0058,2.0,214.1081399,22.79046511,-99999.0,'11111222,11111222,99999999' 
TABS,ioos:station:wmo:42049:1,2003-10-03T14:00:00Z,28.3507,-96.0058,2.0,209.1716972,21.33628131,-99999.0,'11111222,11111222,99999999' 
TABS,ioos:station:wmo:42049:1,2003-10-03T14:30:00Z,28.3507,-96.0058,2.0,202.9997052,22.72665396,-99999.0,'11111222,11111222,99999999' 
TABS,ioos:station:wmo:42049:1,2003-10-03T15:00:00Z,28.3507,-96.0058,2.0,212.1309777,27.01835117,-99999.0,'11111222,11111222,99999999' 
TABS,ioos:station:wmo:42049:1,2003-10-03T15:30:00Z,28.3507,-96.0058,2.0,216.2180879,28.66985351,-99999.0,'11111222,11111222,99999999' 
TABS,ioos:station:wmo:42049:1,2003-10-03T16:00:00Z,28.3507,-96.0058,2.0,215.5715046,17.56850876,-99999.0,'11111222,11111222,99999999' 
TABS,ioos:station:wmo:42049:1,2003-10-03T16:30:00Z,28.3507,-96.0058,2.0,215.6264601,26.91833576,-99999.0,'11111222,11111222,99999999' 
TABS,ioos:station:wmo:42049:1,2003-10-03T17:00:00Z,28.3507,-96.0058,2.0,206.905546,27.82164984,-99999.0,'11111222,11111222,99999999' 
TABS,ioos:station:wmo:42049:1,2003-10-03T17:30:00Z,28.3507,-96.0058,2.0,228.8470817,46.89494322,-99999.0,'11111222,11111222,99999999' 
TABS,ioos:station:wmo:42049:1,2003-10-03T18:00:00Z,28.3507,-96.0058,2.0,221.3210043,51.35691774,-99999.0,'11111222,11111222,99999999' 
TABS,ioos:station:wmo:42049:1,2003-10-03T18:30:00Z,28.3507,-96.0058,2.0,214.8418263,51.03996179,-99999.0,'11111222,11111222,99999999' 
TABS,ioos:station:wmo:42049:1,2003-10-03T19:00:00Z,28.3507,-96.0058,2.0,211.0703224,59.77593579,-99999.0,'11111222,11111222,99999999' 
TABS,ioos:station:wmo:42049:1,2003-10-03T19:30:00Z,28.3507,-96.0058,2.0,217.800231,71.54343716,-99999.0,'11111222,11111222,99999999' 
TABS,ioos:station:wmo:42049:1,2003-10-03T20:00:00Z,28.3507,-96.0058,2.0,214.76633,58.30928314,-99999.0,'11111222,11111222,99999999' 
TABS,ioos:station:wmo:42049:1,2003-10-03T20:30:00Z,28.3507,-96.0058,2.0,218.5955667,55.97739633,-99999.0,'11111222,11111222,99999999' 
TABS,ioos:station:wmo:42049:1,2003-10-03T21:00:00Z,28.3507,-96.0058,2.0,214.0763618,51.38304876,-99999.0,'11111222,11111222,99999999' 
TABS,ioos:station:wmo:42049:1,2003-10-03T21:30:00Z,28.3507,-96.0058,2.0,217.7883527,47.14806147,-99999.0,'11111222,11111222,99999999' 
TABS,ioos:station:wmo:42049:1,2003-10-03T22:00:00Z,28.3507,-96.0058,2.0,213.0242086,38.20200649,-99999.0,'11111222,11111222,99999999' 
TABS,ioos:station:wmo:42049:1,2003-10-03T22:30:00Z,28.3507,-96.0058,2.0,203.3269909,30.40539426,-99999.0,'11111222,11111222,99999999' 
TABS,ioos:station:wmo:42049:1,2003-10-03T23:00:00Z,28.3507,-96.0058,2.0,227.7620135,25.67659829,-99999.0,'11111222,11111222,99999999' 
TABS,ioos:station:wmo:42049:1,2003-10-03T23:30:00Z,28.3507,-96.0058,2.0,208.4664934,26.41356659,-99999.0,'11111222,11111222,99999999' 
TABS,ioos:station:wmo:42049:1,2003-10-04T00:00:00Z,28.3507,-96.0058,2.0,204.0562664,22.88796409,-99999.0,'11111222,11111222,99999999' 
TABS,ioos:station:wmo:42049:1,2003-10-04T00:30:00Z,28.3507,-96.0058,2.0,217.0608614,22.16812351,-99999.0,'11111222,11111222,99999999' 
TABS,ioos:station:wmo:42049:1,2003-10-04T01:00:00Z,28.3507,-96.0058,2.0,204.7222636,24.3410045,-99999.0,'11111222,11111222,99999999' 
TABS,ioos:station:wmo:42049:1,2003-10-04T01:30:00Z,28.3507,-96.0058,2.0,202.7723021,26.84240302,-99999.0,'11111222,11111222,99999999' 
TABS,ioos:station:wmo:42049:1,2003-10-04T02:00:00Z,28.3507,-96.0058,2.0,232.2180906,26.8994052,-99999.0,'11111222,11111222,99999999' 
TABS,ioos:station:wmo:42049:1,2003-10-04T02:30:00Z,28.3507,-96.0058,2.0,215.2888765,32.69844339,-99999.0,'11111222,11111222,99999999' 
TABS,ioos:station:wmo:42049:1,2003-10-04T03:00:00Z,28.3507,-96.0058,2.0,225.0286801,55.88972714,-99999.0,'11111222,11111222,99999999' 
TABS,ioos:station:wmo:42049:1,2003-10-04T03:30:00Z,28.3507,-96.0058,2.0,213.372073,72.02615428,-99999.0,'11111222,11111222,99999999' 
TABS,ioos:station:wmo:42049:1,2003-10-04T04:00:00Z,28.3507,-96.0058,2.0,214.7513426,62.87496481,-99999.0,'11111222,11111222,99999999' 
TABS,ioos:station:wmo:42049:1,2003-10-04T04:30:00Z,28.3507,-96.0058,2.0,214.4997714,62.78169478,-99999.0,'11111222,11111222,99999999' 
TABS,ioos:station:wmo:42049:1,2003-10-04T05:00:00Z,28.3507,-96.0058,2.0,216.8105855,67.96003605,-99999.0,'11111222,11111222,99999999' 
TABS,ioos:station:wmo:42049:1,2003-10-04T05:30:00Z,28.3507,-96.0058,2.0,219.3117064,62.42669701,-99999.0,'11111222,11111222,99999999' 
TABS,ioos:station:wmo:42049:1,2003-10-04T06:00:00Z,28.3507,-96.0058,2.0,219.4411669,60.44487075,-99999.0,'11111222,11111222,99999999' 
TABS,ioos:station:wmo:42049:1,2003-10-04T06:30:00Z,28.3507,-96.0058,2.0,217.8692616,55.59846221,-99999.0,'11111222,11111222,99999999' 
TABS,ioos:station:wmo:42049:1,2003-10-04T07:00:00Z,28.3507,-96.0058,2.0,222.6410634,56.18480667,-99999.0,'11111222,11111222,99999999' 
TABS,ioos:station:wmo:42049:1,2003-10-04T07:30:00Z,28.3507,-96.0058,2.0,215.1181212,57.19071953,-99999.0,'11111222,11111222,99999999' 
TABS,ioos:station:wmo:42049:1,2003-10-04T08:00:00Z,28.3507,-96.0058,2.0,230.1745482,52.52585268,-99999.0,'11111222,11111222,99999999' 
TABS,ioos:station:wmo:42049:1,2003-10-04T08:30:00Z,28.3507,-96.0058,2.0,219.6520511,49.31614137,-99999.0,'11111222,11111222,99999999' 
TABS,ioos:station:wmo:42049:1,2003-10-04T09:00:00Z,28.3507,-96.0058,2.0,226.0757943,50.82872908,-99999.0,'11111222,11111222,99999999' 
TABS,ioos:station:wmo:42049:1,2003-10-04T09:30:00Z,28.3507,-96.0058,2.0,227.9459311,46.08649802,-99999.0,'11111222,11111222,99999999' 
TABS,ioos:station:wmo:42049:1,2003-10-04T10:00:00Z,28.3507,-96.0058,2.0,220.1970525,48.30944421,-99999.0,'11111222,11111222,99999999' 
TABS,ioos:station:wmo:42049:1,2003-10-04T10:30:00Z,28.3507,-96.0058,2.0,232.722221,46.67518077,-99999.0,'11111222,11111222,99999999' 
TABS,ioos:station:wmo:42049:1,2003-10-04T11:00:00Z,28.3507,-96.0058,2.0,230.2983815,45.02296303,-99999.0,'11111222,11111222,99999999' 
TABS,ioos:station:wmo:42049:1,2003-10-04T11:30:00Z,28.3507,-96.0058,2.0,223.1833437,45.95674706,-99999.0,'11111222,11111222,99999999' 
TABS,ioos:station:wmo:42049:1,2003-10-04T12:00:00Z,28.3507,-96.0058,2.0,222.8983851,42.426652,-99999.0,'11111222,11111222,99999999' 
TABS,ioos:station:wmo:42049:1,2003-10-04T12:30:00Z,28.3507,-96.0058,2.0,225.376201,44.11734466,-99999.0,'11111222,11111222,99999999' 
TABS,ioos:station:wmo:42049:1,2003-10-04T13:00:00Z,28.3507,-96.0058,2.0,219.6131112,44.66719714,-99999.0,'11111222,11111222,99999999' 
TABS,ioos:station:wmo:42049:1,2003-10-04T13:30:00Z,28.3507,-96.0058,2.0,220.7820281,46.34200039,-99999.0,'11111222,11111222,99999999' 
TABS,ioos:station:wmo:42049:1,2003-10-04T14:00:00Z,28.3507,-96.0058,2.0,225.3496455,45.14961019,-99999.0,'11111222,11111222,99999999' 
TABS,ioos:station:wmo:42049:1,2003-10-04T14:30:00Z,28.3507,-96.0058,2.0,216.4330487,48.56140958,-99999.0,'11111222,11111222,99999999' 
TABS,ioos:station:wmo:42049:1,2003-10-04T15:00:00Z,28.3507,-96.0058,2.0,217.7927474,51.51668662,-99999.0,'11111222,11111222,99999999' 
TABS,ioos:station:wmo:42049:1,2003-10-04T15:30:00Z,28.3507,-96.0058,2.0,224.3485363,51.64334323,-99999.0,'11111222,11111222,99999999' 
TABS,ioos:station:wmo:42049:1,2003-10-04T16:00:00Z,28.3507,-96.0058,2.0,220.9123622,50.49564833,-99999.0,'11111222,11111222,99999999' 